Huntsville, TX

3:30 PM CST on November 23, 2017 (GMT -0600)
Huntsville Municipal

Weather History for KUTS - October, 2012

Change the Weather History Date:

Sunday, October 7, 2012

  Actual Average (KCXO) Record (KCXO)
Temperature  
Mean Temperature 55 °F -  
Max Temperature 61 °F 79 °F 91 °F (2016)
Min Temperature 50 °F 58 °F 42 °F (2010)
Degree Days  
Heating Degree Days 10    
Growing Degree Days 5 (Base 50)    
Moisture  
Dew Point 44 °F    
Average Humidity 68    
Maximum Humidity 83    
Minimum Humidity 55    
Precipitation  
Precipitation 0.00 in - - ()
Sea Level Pressure  
Sea Level Pressure 30.18 in    
Wind  
Wind Speed 6 mph (North)    
Max Wind Speed 8 mph    
Max Gust Speed -    
Visibility 10 miles    
Events      
Averages and records for this station are not official NWS values.
T = Trace of Precipitation, MM = Missing Value Source: NWS Daily Summary

Daily Weather History Graph

Daily Weather History Graph

Search for Another Location

Airport or City:

Trip Planner

Search our weather history database for the weather conditions in past years. The results will help you decide how hot, cold, wet, or windy it might be!

Date:

Astronomy

Oct. 07, 2012 Rise Set
Actual Time 7:19 AM CDT 6:59 PM CDT
Civil Twilight 6:55 AM CDT 7:23 PM CDT
Nautical Twilight 6:27 AM CDT 7:51 PM CDT
Astronomical Twilight 5:59 AM CDT 8:19 PM CDT
Moon No Moon Rise 1:41 PM CDT (10/7)
Length of Visible Light 12h 27m
Length of Day
11h 39m
Waning Gibbous, 56% of the Moon is Illuminated
Oct 7
Waning Gibbous
Oct 8
Last Quarter
Oct 15
New
Oct 21
First Quarter
Oct 29
Full

Hourly Weather History & Observations

Time (CDT) Temp. Dew Point Humidity Pressure Visibility Wind Dir Wind Speed Gust Speed Precip Events Conditions
12:27 AM 53.6 °F 48.2 °F 82% 30.15 in 9.0 mi Variable 5.8 mph - N/A   Overcast
12:53 AM 53.1 °F 48.0 °F 83% 30.14 in 10.0 mi Variable 6.9 mph - N/A   Overcast
1:53 AM 53.1 °F 46.9 °F 80% 30.16 in 10.0 mi North 8.1 mph - N/A   Overcast
2:07 AM 53.6 °F 46.4 °F 77% 30.17 in 10.0 mi Variable 4.6 mph - N/A   Overcast
2:53 AM 52.0 °F 44.1 °F 74% 30.17 in 10.0 mi Variable 6.9 mph - N/A   Overcast
3:03 AM 51.8 °F 44.6 °F 76% 30.17 in 10.0 mi Variable 3.5 mph - N/A   Overcast
3:53 AM 51.1 °F 42.1 °F 71% 30.17 in 10.0 mi North 8.1 mph - N/A   Overcast
4:53 AM 51.1 °F 43.0 °F 74% 30.17 in 10.0 mi Variable 4.6 mph - N/A   Overcast
5:53 AM 50.0 °F 39.9 °F 68% 30.19 in 10.0 mi Variable 6.9 mph - N/A   Overcast
6:53 AM 50.0 °F 41.0 °F 71% 30.20 in 10.0 mi Variable 5.8 mph - N/A   Overcast
7:53 AM 50.0 °F 41.0 °F 71% 30.22 in 10.0 mi NE 5.8 mph - N/A   Overcast
8:53 AM 51.1 °F 42.1 °F 71% 30.23 in 10.0 mi Variable 5.8 mph - N/A   Overcast
9:53 AM 52.0 °F 41.0 °F 66% 30.24 in 10.0 mi Variable 3.5 mph - N/A   Overcast
10:53 AM 53.1 °F 41.0 °F 64% 30.24 in 10.0 mi Variable 4.6 mph - N/A   Overcast
11:53 AM 55.0 °F 42.1 °F 62% 30.22 in 10.0 mi Variable 3.5 mph - N/A   Overcast
12:53 PM 57.0 °F 43.0 °F 59% 30.19 in 10.0 mi Variable 4.6 mph - N/A   Overcast
1:53 PM 59.0 °F 43.0 °F 55% 30.17 in 10.0 mi Variable 3.5 mph - N/A   Overcast
2:53 PM 60.1 °F 44.1 °F 55% 30.15 in 10.0 mi North 6.9 mph - N/A   Overcast
3:53 PM 60.1 °F 44.1 °F 55% 30.13 in 10.0 mi Variable 3.5 mph - N/A   Overcast
4:53 PM 60.1 °F 45.0 °F 57% 30.12 in 10.0 mi Variable 5.8 mph - N/A   Overcast
5:53 PM 57.0 °F 44.1 °F 62% 30.13 in 10.0 mi Variable 5.8 mph - N/A   Overcast
6:53 PM 55.9 °F 44.1 °F 64% 30.15 in 10.0 mi North 8.1 mph - N/A   Overcast
7:53 PM 55.0 °F 44.1 °F 67% 30.17 in 10.0 mi North 3.5 mph - N/A   Overcast
8:10 PM 53.6 °F 44.6 °F 72% 30.18 in 10.0 mi North 5.8 mph - N/A   Overcast
8:53 PM 54.0 °F 44.1 °F 69% 30.19 in 10.0 mi Variable 4.6 mph - N/A   Overcast
9:53 PM 54.0 °F 44.1 °F 69% 30.20 in 10.0 mi Variable 3.5 mph - N/A   Overcast
10:53 PM 53.1 °F 44.1 °F 71% 30.20 in 10.0 mi Variable 3.5 mph - N/A   Overcast
11:53 PM 53.1 °F 44.1 °F 71% 30.21 in 10.0 mi NNW 5.8 mph - N/A   Overcast